Regional Weather Roundup
Issued by NWS

Home | Current Version | Previous Version | Text Only | Print | Product List | Glossary On
Versions: 1 2 3 4 5 6 7 8 9 10 11 12 13 14 15 16 17 18 19 20 21 22 23 24 25 26 27 28 29 30 31 32 33 34 35 36 37 38 39 40 41 42 43 44 45 46 47 48 49 50
000
ASUS45 KABQ 181210
RWRNM
WEATHER ROUNDUP FOR NEW MEXICO
NATIONAL WEATHER SERVICE ALBUQUERQUE NM
500 AM MST THU DEC 18 2014

NOTE: "FAIR" MEANS FEW OR NO CLOUDS BELOW 12,000 FEET AGL WITH NO
       SIGNIFICANT WEATHER OR OBSTRUCTIONS TO VISION.

      THIS PRODUCT IS RELEASED AS TWO VERSIONS.  ONE VERSION NEAR
      THE TOP OF THE HOUR CONTAINING PRELIMINARY DATA FROM ALBUQUERQUE
      AND OTHER STATIONS.  A FINAL VERSION WITH ADDITIONAL DATA IS
      ISSUED ABOUT 10 MINUTES AFTER THE HOUR.

NMZ501-503-504-510>518-181300-
NORTHWEST PLATEAU/NORTHCENTRAL MOUNTAINS

CITY           SKY/WX    TMP DP  RH WIND       PRES   REMARKS
FARMINGTON     CLOUDY    33  32  96 CALM      30.09S
6HR MIN TEMP:  32; 6HR MAX TEMP:  34; 6HR PCP: TRACE;

LOS ALAMOS     PTCLDY    29  27  92 W5        30.10R WCI  24
SANTA FE       PTCLDY    27  24  89 SW3       30.09S
6HR MIN TEMP:  24; 6HR MAX TEMP:  31;

TAOS           CLOUDY    27  25  93 N6        30.09R WCI  20
ANGEL FIRE     LGT SNOW  27  24  88 CALM      30.06R

$$
NMZ402-403-502-505>509-181300-
WESTCENTRAL MOUNTAINS/SOUTHWEST MOUNTAINS

CITY           SKY/WX    TMP DP  RH WIND       PRES   REMARKS
GALLUP         CLOUDY    32  28  85 S8        30.10F WCI  25
6HR MIN TEMP:  30; 6HR MAX TEMP:  32; 6HR PCP:  0.02;

GRANTS         MOCLDY    26  24  92 CALM      30.13R
SILVER CITY    PTCLDY    36  32  87 N9        30.14F WCI  29

$$
NMZ407-409-411-412-181300-
SOUTHERN DESERTS

CITY           SKY/WX    TMP DP  RH WIND       PRES   REMARKS
LORDSBURG      CLOUDY    37  37 100 E5        30.13F WCI  34
DEMING         CLOUDY    40  38  93 SW3       30.14S
6HR MIN TEMP:  39; 6HR MAX TEMP:  42; 6HR PCP:  0.01;

LAS CRUCES     CLOUDY    40  36  84 W8        30.13S WCI  35
HOLLOMAN AFB   PTCLDY    40  34  81 S7        30.10S WCI  35
ALAMOGORDO     PTCLDY    39  32  75 S7        30.11S WCI  34
T OR C         CLOUDY    37  29  72 CALM      30.11F
6HR MIN TEMP:  37; 6HR MAX TEMP:  41;


$$
NMZ519>523-181300-
CENTRAL VALLEYS/CENTRAL HIGHLANDS

CITY           SKY/WX    TMP DP  RH WIND       PRES   REMARKS
ALBUQUERQUE    PTCLDY    30  27  88 E5        30.12F WCI  25
6HR MIN TEMP:  30; 6HR MAX TEMP:  36;

MORIARTY ARPT  FAIR      30  25  81 N6        30.10F WCI  24
6HR MIN TEMP:  26; 6HR MAX TEMP:  33;

CLINES CORNERS CLEAR     25  21  85 W22       30.03S WCI  10
6HR MIN TEMP:  24; 6HR MAX TEMP:  29;

BELEN          FAIR      29  27  92 W9        30.13R WCI  20
6HR MIN TEMP:  28; 6HR MAX TEMP:  33;

SOCORRO        CLOUDY    30  28  94 NW5       30.13F WCI  25
6HR MIN TEMP:  28; 6HR MAX TEMP:  39;


$$
NMZ524>526-539-540-181300-
SOUTHCENTRAL MOUNTAINS

CITY           SKY/WX    TMP DP  RH WIND       PRES   REMARKS
RUIDOSO        CLEAR     30  25  80 NE3       30.09S

$$
NMZ527>531-181300-
NORTHEAST HIGHLANDS/NORTHEAST PLAINS

CITY           SKY/WX    TMP DP  RH WIND       PRES   REMARKS
LAS VEGAS      PTCLDY    24  19  81 S3        30.01F
6HR MIN TEMP:  22; 6HR MAX TEMP:  31;

RATON          CLEAR     20  17  88 NE3       29.99R
6HR MIN TEMP:  19; 6HR MAX TEMP:  27;

CLAYTON        CLEAR     24  21  88 W9        30.01R WCI  14
6HR MIN TEMP:  18; 6HR MAX TEMP:  29;


$$
NMZ532>537-181300-
EASTCENTRAL PLAINS

CITY           SKY/WX    TMP DP  RH WIND       PRES   REMARKS
TUCUMCARI      FOG       24  22  91 NE6       30.03R VSB 3/4 WCI  17
6HR MIN TEMP:  24; 6HR MAX TEMP:  42;

CANNON AFB     CLEAR     34  27  77 W10       30.05R WCI  26
6HR MIN TEMP:  34; 6HR MAX TEMP:  41;

CLOVIS AIRPORT CLEAR     32  27  80 W8        30.05R WCI  25

$$
NMZ028-029-538-181300-
SOUTHEAST PLAINS

CITY           SKY/WX    TMP DP  RH WIND       PRES   REMARKS
ROSWELL        CLEAR     35  28  75 NW3       30.09R
6HR MIN TEMP:  30; 6HR MAX TEMP:  43;

ARTESIA        CLEAR     36  30  80 S7        30.09S WCI  30
CARLSBAD       PTCLDY    47  34  60 NE3       30.07S
6HR MIN TEMP:  44; 6HR MAX TEMP:  53;

HOBBS          CLEAR     36  30  80 NW7       30.08S WCI  30


$$


USA.gov is the U.S. government's official web portal to all federal, state and local government web resources and services.